Presure
201 208 194 186 211 235 205 204 196 147 191 207 215 237 261 288 349 387 379 258 251 230 231 222 199 189 212 190 187 178 182 183 178 201 184 182 182 188 188 183 187 191 190 189
213 215 209 190 208 224 206 210 182 188 207 213 199 216 236 256 280 338 385 387 252 226 246 231 222 206 197 236 196 191 186 186 187 187 183 183 185 188 187 192 182 199 190 190
215 208 202 193 197 206 214 229 210 197 206 154 199 210 215 233 251 270 309 371 361 247 245 214 236 228 218 209 206 194 195 195 191 191 190 198 219 206 205 191 189 194 195 191
218 196 214 202 206 222 198 216 166 172 198 167 205 206 200 207 225 241 260 284 346 381 276 245 230 216 225 215 207 197 201 207 208 200 201 202 197 191 194 195 192 197 196 200
233 228 213 201 204 199 193 231 199 198 215 203 201 199 203 202 205 218 231 247 262 291 352 372 264 247 233 231 229 223 218 208 198 210 210 213 210 207 208 206 203 202 205 207
243 239 237 216 214 195 195 235 192 222 202 211 190 197 199 202 184 206 201 218 225 243 259 275 314 355 374 250 228 220 216 214 212 219 225 225 224 220 215 219 218 225 221 217
279 270 274 233 213 223 227 223 226 195 217 223 208 200 206 192 199 192 170 204 208 215 218 230 245 260 273 294 315 335 338 273 237 217 212 223 208 208 205 204 233 229 282 259
316 307 263 235 233 228 215 238 235 229 220 217 205 211 198 204 199 158 199 195 197 192 198 206 209 216 220 226 239 251 265 271 275 278 278 275 272 265 238 232 224 209 204 207
334 312 308 258 238 239 240 240 235 223 215 202 219 217 216 208 201 196 193 197 196 192 200 193 193 194 200 204 205 205 205 205 205 205 205 206 206 209 211 211 209 206 205 206
352 340 311 255 261 218 245 246 234 226 225 238 230 219 233 209 212 204 194 192 192 192 201 199 200 198 198 194 201 203 203 203 202 202 202 201 199 199 199 193 192 193 196 195
352 337 282 307 229 256 223 234 238 240 234 235 229 215 222 226 211 205 210 203 199 192 190 192 191 200 190 196 195 195 197 195 194 187 191 188 196 201 200 208 208 187 199 194
303 308 344 312 300 265 251 237 225 234 232 216 217 222 220 229 211 194 207 203 204 204 205 204 200 196 197 198 199 194 191 192 185 189 196 197 205 203 205 211 208 219 222 227
331 339 363 323 297 275 197 245 243 237 236 228 224 213 207 212 228 230 235 216 207 207 210 211 204 203 205 203 214 203 203 212 192 197 213 200 219 212 224 220 206 233 244 196
168 325 328 319 295 276 283 251 245 233 243 237 232 214 210 229 215 224 234 219 243 202 212 205 207 212 203 211 197 215 212 194 217 205 224 197 206 227 230 194 238 230 242 249
294 317 325 321 310 266 265 278 263 249 239 240 239 231 219 214 215 217 228 226 206 190 200 206 215 219 204 211 211 210 210 212 228 212 200 241 192 203 186 228 238 245 249 259
166 306 301 319 310 286 250 271 264 252 243 236 242 237 228 216 218 216 216 210 220 223 209 216 216 226 226 228 229 180 226 220 231 230 215 226 234 227 241 246 248 249 260 257
392 233 113 330 311 257 263 281 273 258 245 238 233 236 233 232 216 213 219 222 221 224 225 224 224 223 216 207 201 220 218 222 229 240 240 175 244 249 242 245 260 263 257 255
170 242 286 320 177 127 187 292 287 270 254 241 235 233 239 234 230 232 226 221 219 219 226 224 220 219 216 216 218 218 221 232 231 239 247 248 249 255 260 262 263 258 264 287
401 437 436 294 323 318 307 294 222 283 263 252 247 243 245 237 234 231 229 234 230 226 224 223 219 220 224 231 236 235 236 237 239 245 249 258 258 262 263 263 263 279 298 306
387 402 425 465 277 320 316 274 303 225 273 266 261 253 246 244 237 234 233 228 230 229 230 234 239 244 240 236 236 239 241 243 247 258 261 257 259 264 265 276 288 306 303 285
411 431 448 477 451 290 298 189 316 280 266 270 274 257 250 242 239 237 238 240 243 243 243 246 251 248 247 243 245 247 252 254 255 259 261 264 266 273 284 295 310 289 282 304
331 432 465 459 488 373 285 296 302 309 255 274 276 273 266 254 253 256 268 270 265 254 248 254 256 254 251 251 258 261 260 259 265 265 266 274 281 293 306 295 280 284 337 409
599 381 445 408 387 376 284 291 294 303 306 303 281 259 260 258 260 265 265 265 268 272 275 273 270 268 268 270 268 266 264 265 274 280 283 294 299 310 278 275 308 392 401 391
378 346 453 385 370 276 268 273 280 288 295 294 287 271 263 259 261 257 251 252 277 279 259 272 278 279 278 275 272 272 282 284 286 292 297 301 279 270 290 332 419 402 387 366
327 322 322 333 316 262 266 268 270 273 282 284 284 283 275 270 250 250 253 257 269 278 278 279 278 280 286 287 285 286 285 293 290 294 279 269 284 309 353 416 396 374 353 320
311 309 303 306 317 296 249 249 267 274 278 279 281 282 278 272 269 273 280 282 282 282 282 284 285 282 279 282 293 291 281 287 282 269 287 300 334 420 407 388 366 338 352 360
299 299 295 295 293 279 256 257 253 268 276 275 271 269 274 280 281 279 275 277 279 279 278 271 282 291 290 280 277 280 283 283 290 303 327 416 415 393 371 360 322 366 357 348
Wind_Speed
50 50 39 36 28 29 25 22 23 30 16 8 7 15 23 27 20 3 35 106 110 111 118 116 105 98 115 104 110 100 98 101 99 119 103 101 101 107 107 98 105 109 109 109
55 54 46 41 43 31 31 27 33 29 16 7 19 9 10 14 21 16 2 29 104 99 109 113 113 107 106 118 113 112 107 109 109 111 108 106 111 112 109 114 103 120 114 113
57 60 42 41 56 36 33 34 32 34 24 32 22 11 11 6 7 13 15 2 40 103 105 97 108 113 114 113 116 113 117 117 118 118 118 120 124 123 120 112 108 114 116 112
66 61 52 59 58 56 34 39 39 40 35 38 25 21 24 19 8 1 4 7 3 9 103 104 103 102 110 111 111 107 112 118 120 119 119 120 117 110 113 116 112 115 117 122
82 73 57 53 69 51 43 48 43 44 39 38 38 34 26 24 21 12 8 7 4 2 9 19 102 106 105 108 111 112 113 112 109 115 116 117 119 121 120 120 120 120 121 122
82 78 68 63 72 62 48 47 54 43 46 45 49 44 37 31 32 24 29 16 15 13 12 11 14 21 25 98 106 106 106 107 108 110 111 112 113 114 114 115 115 116 115 114
83 84 72 70 71 80 62 60 67 43 47 47 49 49 43 45 39 42 39 29 27 22 22 21 21 22 24 28 32 34 41 80 102 103 103 102 103 104 104 105 98 100 81 85
83 84 64 69 76 79 66 69 65 59 56 49 53 52 53 47 47 46 43 44 43 48 41 32 31 29 30 33 35 37 40 44 48 51 55 58 62 64 74 74 76 88 95 95
83 75 67 77 77 78 74 69 68 66 59 54 54 55 55 55 53 53 52 50 50 51 45 51 53 53 48 45 46 50 53 56 58 61 65 68 72 73 75 78 83 89 94 97
78 77 70 70 75 78 75 74 71 72 67 63 60 57 56 59 55 58 61 60 58 58 53 54 54 56 57 62 59 60 62 64 66 68 71 73 77 81 86 91 94 98 101 105
71 71 62 71 66 80 77 74 71 71 70 67 63 61 61 59 61 62 59 62 64 65 64 64 63 63 66 66 68 69 70 73 75 76 79 81 84 87 85 90 93 96 95 101
61 66 76 72 75 80 82 80 76 74 75 69 68 67 65 63 65 59 61 66 65 65 66 68 70 73 73 73 74 77 77 79 80 81 84 87 88 90 92 92 97 94 95 101
62 71 74 73 74 79 65 84 83 78 77 75 73 72 66 63 67 66 62 66 69 68 67 68 71 72 73 74 70 76 79 78 80 83 83 90 83 89 88 91 103 96 100 106
21 70 69 75 76 80 83 86 86 82 79 77 77 75 72 71 69 70 67 67 63 71 69 73 74 74 77 76 81 77 78 82 80 86 84 92 90 88 91 89 97 96 102 105
71 75 75 81 79 80 82 86 88 87 82 79 81 79 78 74 75 75 74 73 72 71 73 75 74 75 76 78 79 79 79 82 84 86 88 88 90 86 86 90 97 102 106 109
24 83 81 83 82 82 83 81 87 87 86 81 80 78 77 80 80 80 78 72 76 77 75 76 76 78 79 80 81 61 82 81 86 86 81 88 93 89 99 101 102 102 106 105
71 58 15 74 79 78 81 79 86 90 88 85 82 81 81 80 82 81 82 82 81 81 81 81 82 80 76 72 75 81 80 83 86 93 96 69 100 101 98 100 105 107 105 106
35 43 71 70 43 28 42 81 83 90 87 86 85 85 83 82 84 84 85 85 84 83 85 85 84 83 80 81 83 83 85 93 92 96 98 99 99 102 104 105 107 105 113 114
34 38 55 69 71 75 78 80 56 80 87 88 89 90 85 83 83 83 84 88 89 88 88 89 86 87 91 94 96 95 94 94 95 97 99 101 102 104 105 105 108 113 110 104
35 41 46 52 74 71 75 74 70 60 82 88 92 89 85 84 84 84 86 86 88 89 90 92 95 97 97 95 95 96 96 96 98 102 102 101 103 106 108 111 108 106 101 100
26 29 37 44 59 67 67 42 67 76 79 85 87 86 86 83 86 88 89 93 94 93 94 96 99 98 98 97 97 97 100 101 100 101 102 103 105 107 106 105 102 97 97 105
18 26 24 33 42 64 64 63 64 67 76 77 77 80 86 91 92 93 89 88 91 96 96 99 101 101 100 101 102 102 101 100 102 101 101 103 102 101 101 95 94 97 105 58
7 16 25 46 46 50 61 59 59 62 68 70 74 77 79 82 84 83 83 83 84 85 86 89 92 95 98 99 99 99 99 99 99 98 98 98 98 97 89 92 104 71 56 56
33 17 47 46 44 53 54 57 56 55 58 62 69 75 77 77 77 78 79 82 80 81 86 86 87 89 90 92 94 94 93 93 93 94 94 93 86 87 95 100 51 51 53 55
30 30 24 19 19 58 59 59 59 59 58 61 66 69 72 73 72 75 79 81 81 80 81 83 83 84 85 86 87 88 87 90 89 89 84 84 89 99 86 48 50 53 56 58
23 23 27 29 28 39 53 54 56 56 58 61 63 64 65 68 71 72 73 74 75 76 77 78 79 80 81 82 85 85 82 84 81 80 89 96 95 48 47 49 52 55 52 49
27 28 32 33 36 45 53 54 55 55 56 57 60 63 65 66 67 68 68 68 70 71 73 74 76 79 80 77 77 78 80 82 88 94 94 51 43 45 49 51 53 48 46 46
Wind_Direction
278 279 269 267 270 290 269 262 265 254 252 275 318 358 19 21 21 310 219 216 217 220 221 223 231 238 234 242 242 255 258 261 262 251 265 268 269 269 271 275 275 274 276 276
269 270 272 268 273 276 264 262 259 256 249 258 224 296 348 25 23 30 283 223 220 224 223 225 227 233 239 230 241 246 254 257 260 260 265 268 268 268 270 269 274 271 275 278
262 265 264 268 265 257 265 274 255 255 246 247 234 252 264 319 34 33 31 358 225 225 226 231 228 230 234 237 237 244 245 249 253 255 257 258 259 262 264 269 273 273 274 277
258 262 262 263 270 269 253 261 244 249 247 251 235 231 229 232 265 245 64 35 15 231 229 231 232 235 234 237 240 245 246 247 249 253 255 256 261 266 269 269 272 274 274 274
260 260 255 261 264 256 246 268 242 250 247 241 240 236 230 231 228 243 232 201 189 191 230 230 235 236 237 238 240 242 244 247 251 252 255 257 259 261 264 267 268 270 273 275
256 258 256 255 260 255 245 265 245 247 246 241 248 244 235 226 239 231 226 229 228 213 210 220 226 237 239 241 242 245 247 249 251 253 256 257 259 261 264 267 269 272 274 277
254 253 248 251 256 261 256 254 254 238 244 244 239 241 234 244 231 234 245 230 230 232 233 230 225 226 231 234 238 244 247 250 253 254 256 259 261 263 266 269 272 274 278 279
250 249 245 247 245 248 248 251 251 247 245 239 239 237 241 234 238 242 234 236 235 235 234 233 236 241 241 240 241 244 248 249 252 255 258 260 264 266 267 268 270 271 272 273
244 246 238 233 237 240 243 246 247 245 242 232 239 239 236 235 236 243 244 238 238 242 237 242 243 244 242 241 242 244 245 247 250 252 254 256 259 262 265 267 269 270 272 274
241 239 237 234 234 243 239 238 238 242 244 242 242 240 241 239 236 235 245 248 248 249 241 242 242 245 246 250 248 248 249 252 254 256 258 261 263 266 268 272 275 277 277 279
241 238 236 233 240 231 238 239 241 242 242 243 243 242 242 240 239 240 240 241 245 253 255 254 256 248 259 253 255 255 255 256 259 267 266 270 268 268 276 271 273 284 282 283
240 237 234 232 229 230 232 234 236 236 241 243 245 244 244 245 241 246 243 245 244 246 246 247 251 254 253 254 257 259 265 266 273 271 269 270 270 271 272 275 276 282 285 287
233 235 232 228 227 227 243 232 234 234 235 238 239 245 244 244 248 248 245 243 246 248 249 251 253 256 257 260 261 262 263 265 271 271 269 272 276 275 284 283 277 290 292 289
257 233 230 226 224 224 227 231 234 235 234 235 236 242 246 247 248 251 251 246 251 249 253 253 254 256 258 261 264 266 265 270 268 268 277 274 277 285 286 292 292 293 297 298
221 225 224 225 224 221 225 226 229 233 233 233 235 236 241 246 248 252 253 254 254 255 255 256 259 260 261 262 264 266 268 271 276 275 276 281 279 286 292 291 295 296 298 300
233 217 217 221 221 221 226 225 227 230 234 233 234 236 237 241 245 249 252 252 255 256 257 260 261 264 266 268 270 281 275 279 279 282 285 284 287 291 294 295 296 298 301 302
226 226 229 221 223 221 222 223 226 227 231 236 236 236 238 239 249 253 253 255 258 259 261 263 265 268 271 270 275 276 279 282 285 286 287 294 291 292 295 296 299 301 303 303
242 255 220 222 236 254 243 225 223 226 230 234 239 239 237 240 243 246 250 256 260 263 263 265 268 271 273 276 279 282 284 284 286 287 289 291 293 295 297 299 302 303 304 305
246 234 227 217 221 224 225 229 232 226 230 233 236 241 241 243 245 248 252 253 257 261 265 268 272 274 274 274 276 279 281 284 287 290 292 294 296 298 300 302 303 303 306 308
249 233 228 225 219 219 223 228 226 232 229 232 235 240 244 246 249 252 254 257 260 263 265 267 269 270 272 275 278 281 284 287 290 292 294 296 299 300 302 302 303 307 307 304
257 246 235 224 211 218 222 225 227 227 229 233 236 240 245 250 251 254 257 259 261 264 266 269 270 272 274 277 280 283 286 288 292 294 295 298 299 300 301 303 307 304 303 308
248 219 219 209 181 205 218 220 224 228 233 237 239 242 245 248 251 254 256 258 260 263 267 268 270 273 276 278 281 283 286 290 291 294 296 297 298 301 304 305 302 305 307 304
192 159 167 164 182 196 214 216 222 227 232 236 240 242 244 247 250 254 257 259 262 264 266 267 269 272 274 277 280 284 287 290 291 293 295 298 301 304 301 302 306 305 303 304
89 109 153 174 180 210 217 221 223 229 232 236 240 244 247 250 252 255 259 263 266 268 270 271 273 275 277 279 282 285 287 290 293 295 298 301 301 299 305 306 301 301 302 303
109 121 134 141 164 209 213 218 224 229 233 237 242 245 249 253 257 259 262 264 266 269 272 274 277 280 282 284 286 288 290 293 295 298 300 297 302 304 304 301 301 302 303 305
141 150 166 176 176 196 223 228 227 230 235 239 243 248 252 254 257 260 264 266 269 272 275 278 280 282 284 286 288 290 294 297 299 296 302 302 302 299 299 300 301 302 303 305
164 163 177 184 194 205 220 225 231 232 237 242 246 249 253 257 260 264 269 273 275 277 278 280 282 284 285 289 293 296 299 300 301 300 300 297 298 298 299 300 301 303 304 306